Segelboote 2013

Name Größe Datum
Sirius 35 DS 1,45 MB 11.12.2013
Faurby 360 E 2,28 MB 11.12.2013
HANSE 345 1,89 MB 11.12.2013
HR 412 2,37 MB 11.12.2013
Beneteau First 20 1,49 MB 11.12.2013
bavaria 40s 2,10 MB 10.04.2013
diamant 3000 1,74 MB 10.04.2013
delphia 26 1,61 MB 10.04.2013

Segelboote 2014

Name Größe Datum
J 88 0,54 MB 20.04.2015
1140 0,43 MB 20.04.2015
Delphia 31 0,52 MB 20.04.2015
Sun Odyssey 349 0,44 MB 20.04.2015
Saffier 33 0,35 MB 27.10.2014
X 33 0,65 MB 06.08.2014
ts 23 0,45 MB 06.08.2014
Seascape 27 0,48 MB 06.08.2014
Delphia 24 OD 0,34 MB 06.08.2014

Segelboote 2015

Name Größe Datum
Oceanis 38 0,39 MB 31.07.2015
elan 210 0,16 MB 20.04.2015
Gaffelkutter 0,61 MB 20.04.2015
Sunwind 310 0,41 MB 20.04.2015

Segelboote 2016

Name Größe Datum
Saphire 27 cruise 0,64 MB 13.12.2016
Corsair Pulse 600 0,57 MB 13.12.2016
Nordborg 34 0,57 MB 27.10.2016
Oceananis 41.1 0,38 MB 30.08.2016
Nordship 430 DS 0,40 MB 30.08.2016
Oceanis 35 0,38 MB 30.08.2016
Lake Constance Pilot Cutter 0,43 MB 30.08.2016
JK 28 0,44 MB 16.06.2016

Segelboottest 2017

Name Größe Datum
Saphir 27 Cruise 0,64 MB 27.02.2017
Haber 34 C 4 0,52 MB 27.02.2017
Green Bente 24 0,41 MB 27.02.2017

Segelboote 2012

Name Größe Datum
Catalina 375 1,12 MB 17.12.2012
Farr 400 1,01 MB 16.11.2012
B/One 0,98 MB 16.11.2012
J 70 1,18 MB 16.11.2012
RS Feva 0,85 MB 16.11.2012
tofinou 0,41 MB 24.08.2012
Nanook 0,31 MB 15.05.2012
Trokil 21 0,28 MB 22.03.2012
scholtz 32 0,35 MB 22.03.2012
VA 44 0,31 MB 14.02.2012

Segelboote 2011

Name Größe Datum
Mariner 20 0,32 MB 14.02.2012
J 111 0,41 MB 10.12.2011
Dehler 32 0,36 MB 27.10.2011
SL 33 1,28 MB 27.10.2011
Storm22 0,30 MB 27.10.2011
Dinamica 940rs 0,38 MB 06.08.2011
Varianta VA18 0,28 MB 22.06.2011
J 108 0,41 MB 16.05.2011
clarc 33 0,37 MB 06.04.2011
EGE 30 DS 0,33 MB 02.03.2011
Ultimate 20 0,23 MB 30.01.2011
wincat 0,29 MB 30.01.2011

Segelboote 2010

Name Größe Datum
Hallberg Rassy 310 0,64 MB 10.11.2010
J 95 0,33 MB 15.10.2010
easysail 0,25 MB 20.07.2010
Maxus 24 0,23 MB 28.05.2010
J109 0,43 MB 30.03.2010
Huzar 28 0,27 MB 03.03.2010
First 21.7S 0,27 MB 04.01.2010
First 25.7 0,27 MB 01.01.2010
MM515Duo 0,50 MB 01.01.2010
Olsen 370 0,30 MB 01.01.2010
SPW9.5DS 0,32 MB 01.01.2010
Wharram 0,20 MB 01.01.2010
wilke49 0,31 MB 01.01.2010

Segelboote 2009

Name Größe Datum
J 97 0,45 MB 22.12.2010
blue 26 0,20 MB 01.01.2009
CM 35 0,42 MB 01.01.2009
J 92 Sl 0,38 MB 01.01.2009
J80 0,24 MB 01.01.2009
lacustre 0,29 MB 01.01.2009
Longtze 0,36 MB 01.01.2009
N 29 0,11 MB 01.01.2009
Onyx 0,25 MB 01.01.2009
Skippi 750 0,28 MB 01.01.2009
sly42 0,28 MB 01.01.2009
Sun Odyssey 30i 0,25 MB 01.01.2009
Sunbeam 30.1 0,37 MB 01.01.2009
X-34 0,30 MB 01.01.2009

Segelboote 2008

Name Größe Datum
Abraxas 9.1 0,30 MB 01.01.2008
arion29 0,31 MB 01.01.2008
Etap 28s 0,35 MB 01.01.2008
j100 0,38 MB 01.01.2008
Makten 0,20 MB 01.01.2008
RS 500 0,18 MB 01.01.2008
Speedwave 11.9 CR 0,34 MB 01.01.2008
Wirz-Olsen 34 0,28 MB 01.01.2008

Segelboote 2007

Name Größe Datum
Abraxas 10.50 CR 0,22 MB 01.01.2007
Beneteau34.7 0,37 MB 01.01.2007
Blu30 0,17 MB 01.01.2007
Dufour 325 0,34 MB 01.01.2007
Fan 25 0,29 MB 01.01.2007
Mac Gregor26m 0,20 MB 01.01.2007
Novacat 26 0,40 MB 01.01.2007
Speedwave 14er 0,17 MB 01.01.2007

Segelboote 2006

Name Größe Datum
Axion33.5 0,29 MB 01.01.2006
Dufour 365 0,39 MB 01.01.2006
Hanse315 0,39 MB 01.01.2006
Hempel31 0,32 MB 01.01.2006
Liv21 0,26 MB 01.01.2006
majestic 24 0,37 MB 01.01.2006
psaros 40 0,29 MB 01.01.2006
QN 32 0,33 MB 01.01.2006
Sportina25 0,31 MB 01.01.2006

Segelboote 2005

Name Größe Datum
Corby 0,38 MB 01.01.2005
Degero¨ 36 0,41 MB 01.01.2005
Dufour 34 0,41 MB 01.01.2005
First Class7.5 0,24 MB 01.01.2005
hallberg 37 0,36 MB 01.01.2005
hanse411 1,33 MB 01.01.2005
HIP 30 0,38 MB 01.01.2005
Raudaschl-Jolle 0,13 MB 01.01.2005
Skippy 650cruiser 0,34 MB 01.01.2005
Weco635 0,28 MB 01.01.2005
X-37 0,36 MB 01.01.2005

Segelboote 2004

Name Größe Datum
dyas 0,43 MB 01.01.2004
D_Seiten_42-47 HR 40 0,43 MB 01.01.2004
finngulf33 1,26 MB 01.01.2004
Heinrich 11mclassic 0,37 MB 01.01.2004
L-boot 0,38 MB 01.01.2004
rommel34CR 0,85 MB 01.01.2004
sarnade41 1,02 MB 01.01.2004
skippi650 0,56 MB 01.01.2004

Segelboote 2003

Name Größe Datum
fan23 0,33 MB 01.01.2003
H 31 0,61 MB 01.01.2003
hansajolle 0,84 MB 01.01.2003
hanse341 0,62 MB 01.01.2003
highlight 0,72 MB 01.01.2003
mono22 0,26 MB 01.01.2003
nauticat37 0,53 MB 01.01.2003
streamline 0,38 MB 01.01.2003
topcat 0,54 MB 01.01.2003

Segelboote 2002

Name Größe Datum
8mOD 0,52 MB 01.01.2002
beneteaufirst36.7 1,03 MB 01.01.2002
fingulf41 0,53 MB 01.01.2002
grandsurprise 0,71 MB 01.01.2002
humphreys22 0,54 MB 01.01.2002
kron31 0,65 MB 01.01.2002
nissen1085 0,81 MB 01.01.2002
t870 0,77 MB 01.01.2002

Segelboote 2001

Name Größe Datum
bavaria31 0,75 MB 01.01.2001
bavaria34 0,45 MB 01.01.2001
beneteau393 0,49 MB 01.01.2001
grandsoleil34.1 0,49 MB 01.01.2001
jeaneausun2000 0,60 MB 01.01.2001
tess550 0,28 MB 01.01.2001
trimarane 0,62 MB 01.01.2001
ufo22 0,19 MB 01.01.2001



Info

Bitte beachten Sie das die meisten Downloads einen Acrobat Reader benötigen. Diesen können Sie bei Adobe herunterladen

Die IBN bei WhatsApp